Regional Weather Roundup
Issued by NWS

Home | Current Version | Previous Version | Text Only | Print | Product List | Glossary Off
Versions: 1 2 3 4 5 6 7 8 9 10 11 12 13 14 15 16 17 18 19 20 21 22 23 24 25 26 27 28 29 30 31 32 33 34 35 36 37 38 39 40 41 42 43 44 45 46 47 48 49 50

000
ASUS45 KBOU 192007
RWRCO

WEATHER ROUNDUP FOR COLORADO
NATIONAL WEATHER SERVICE DENVER/BOULDER CO
200 PM MDT WED JUL 19 2017

NOTE: "FAIR" INDICATES FEW OR NO CLOUDS BELOW 12000 FEET WITH NO
SIGNIFICANT WEATHER AND/OR OBSTRUCTIONS TO VISIBILITY.

COZ001>005-013-030-031-192100-
...NORTHWEST COLORADO...

CITY           SKY/WX    TMP DP  RH WIND       PRES   REMARKS
CRAIG          FAIR      89  43  20 VRB5      30.21F
HAYDEN         FAIR      88  45  22 W5        30.25F
MEEKER         FAIR      89  44  20 CALM      30.23F
RABBIT EARS PA FAIR      63  45  51 N7        30.63F
STEAMBOAT SPGS FAIR      87  47  25 NW5       30.28F
WALDEN         FAIR      79  34  19 S3        30.39F
$$

COZ006>008-011-192100-
...WEST CENTRAL VALLEYS...

CITY           SKY/WX    TMP DP  RH WIND       PRES   REMARKS
GRAND JUNCTION FAIR      93  52  24 W12       30.11F
MONTROSE       FAIR      92  47  21 VRB5      30.20F
EAGLE          SUNNY     88  46  23 W8        30.26F
RIFLE          FAIR      91  48  22 CALM      30.16F
DELTA          FAIR      96  46  17 S6        30.15F
NUCLA          FAIR      91  45  19 NW3       30.25F
$$

COZ017>023-064>068-192100-
...SOUTHWEST COLORADO...

CITY           SKY/WX    TMP DP  RH WIND       PRES   REMARKS
DURANGO        PTSUNNY   83  46  27 CALM      30.31F
CORTEZ         FAIR      92  49  22 SW15      30.23F
PAGOSA SPRINGS FAIR      82  42  24 S7        30.41F
TELLURIDE      FAIR      63  55  75 SE5       30.55S
WOLF CREEK PAS FAIR      63  45  51 S14G21    30.80F
$$

COZ009-010-012-014-032>034-037-058>063-192100-
...CENTRAL COLORADO...

CITY           SKY/WX    TMP DP  RH WIND       PRES   REMARKS
ASPEN          FAIR      80  48  32 SE14      30.36F
BUENA VISTA    FAIR      77  47  34 S9        30.37F
COPPER MTN     CLOUDY    64  39  39 W10       30.75S
BERTHOUD PASS  FAIR      57  43  58 SE9       30.79F
COTTONWOOD PAS FAIR      75  34  22 SE5       30.55F
GUNNISON       FAIR      81  48  31 NW6       30.37F
KREMMLING      FAIR      95  36  12 SW6       30.32F
LEADVILLE      PTSUNNY   65  38  36 E9        30.51S THUNDER
MONARCH PASS   FAIR      64  43  45 W10G18    30.84F
SALIDA         FAIR      90  42  19 SW12G18   30.39F
SUNLIGHT       TSTM      50  43  76 CALM      30.68S VSB 3/4
WILKERSON PASS CLOUDY    64  41  42 CALM      30.70F
$$

COZ069>075-192100-
...SAN LUIS VALLEY/SANGRE DE CRISTO MOUNTAINS...

CITY           SKY/WX    TMP DP  RH WIND       PRES   REMARKS
ALAMOSA        FAIR      80  52  37 SE7       30.38F
DEL NORTE      FAIR      78  53  40 SE9       30.42F
LA VETA PASS   NOT AVBL
SAGUACHE         N/A    N/A N/A N/A MISG        N/A
$$

COZ035-036-038>040-192100-
...NORTHERN COLORADO FRONT RANGE...

CITY           SKY/WX    TMP DP  RH WIND       PRES   REMARKS
DENVER INTL AP FAIR      98  40  13 N13       30.11F
DMNS CITY PARK   N/A     96  41  15 E10       30.11F
AURORA         NOT AVBL
FRONT RANGE AP FAIR      99  39  12 NE9G18    30.14F
ERIE MUNI ARPT FAIR      98  37  12 E12       30.09F
BOULDER MUN AP FAIR      97  46  17 E8        30.10F
CENTENNIAL     FAIR      96  41  15 NE10      30.16F
BROOMFIELD     FAIR      97  41  14 E7        30.15F
FORT COLLINS   FAIR      99  54  22 SE7       30.09F
LONGMONT       FAIR     100  44  15 E9        30.10F
$$

COZ041-046-047-076>085-087-088-192100-
...PIKES PEAK/PALMER DIVIDE AND SOUTHERN FOOTHILLS...

CITY           SKY/WX    TMP DP  RH WIND       PRES   REMARKS
COLO. SPRINGS  FAIR      91  51  25 S15       30.22F
A. F. ACADEMY  NOT AVBL
SCHRIEVER AFB  FAIR      88  46  23 SE13G20   30.23F
CHEYENNE MTN   NOT AVBL
ELLICOTT       FAIR     N/A N/A N/A S13G21    30.21F
FALCON           N/A     87  47  24 S12G22    30.29F
FORT CARSON    FAIR      91  51  25 S12       30.18F
LIMON          FAIR      92  52  25 S18G28    30.15F
MONUMENT HILL  FAIR      86  48  26 S10G18    30.29F
CANON CITY     SUNNY     95  55  26 E8G18     30.14F
WALSENBURG     FAIR      95  43  16 SW12G21   30.21F
TRINIDAD       FAIR      94  44  17 S17       30.20F
$$

COZ042>045-048>051-090-091-192100-
...NORTHEAST COLORADO...

CITY           SKY/WX    TMP DP  RH WIND       PRES   REMARKS
GREELEY ARPT   FAIR      96  54  24 VRB6      30.06F
AKRON          FAIR     101  50  18 S13G24    30.06F
BURLINGTON     FAIR      96  59  29 S20G32    30.09F
WRAY           NOT AVBL
YUMA           NOT AVBL
STERLING       FAIR     100  55  22 S8        29.99F
HOLYOKE        FAIR      99  61  28 S15G21    30.02F
FORT MORGAN    FAIR     100  47  16 SE9       30.05F
$$

COZ086-089-092>099-192100-
...SOUTHEAST COLORADO...

CITY           SKY/WX    TMP DP  RH WIND       PRES   REMARKS
PUEBLO         FAIR      99  49  18 CALM      30.07F
LA JUNTA       FAIR     100  52  19 SE12G17   30.08F
LAMAR          FAIR      98  55  23 S18G26    30.04F
SPRINGFIELD      N/A     93  53  25 S15G24    30.14F
$$



USA.gov is the U.S. government's official web portal to all federal, state and local government web resources and services.